Flag for U.S.A. Weather past 2 weeks in Abilene, Texas, U.S.A.

Now
51 °F

Clear.


Feels Like: 49 °F
Forecast: 50 / 79 °F
Wind: 7 mph from Southwest

Location: Abilene Regional Airport

Current Time: Jan 28, 2015 at 6:18:09 AM

Latest Report: Jan 28, 2015 at 5:52 AM


Visibility: 10 mi

Pressure: 30.04 "Hg

Humidity: 59%

Dew point: 37 °F

Location of AbileneLocation

Historic Weather in Abilene — Graph

°F

Abilene temperature yesterday

Maximum temperature yesterday: 78 °F (at 3:52 PM)
Minimum temperature yesterday: 40 °F (at 7:52 AM)
Average temperature yesterday: 58 °F

Past Weeks' High & Low Weather Summary

 TemperatureHumidityPressure
High78 °F (Jan 27, 3:52 PM)100% (Jan 21, 2:52 PM)30.51 "Hg (Jan 21, 2:52 PM)
Low29 °F (Jan 13, 6:52 AM)14% (Jan 18, 2:52 PM)29.88 "Hg (Jan 20, 4:52 AM)
Average46 °F59%30.18 "Hg
* Reported Jan 13 4:52 AM — Jan 28 4:52 AM, Abilene, Weather by CustomWeather, © 2014

Note: Actual official high and low records may vary slightly from our data, if they occured in-between our weather recording intervals... More about our weather records

Advertising

Abilene weather history for previous 24 hours

 ConditionsComfort  
Time TempWeatherWind HumidityBarometerVisibility
4:52 AM
Jan 28
52 °FClear.6 mph57%30.03 "Hg10 mi
3:52 AM50 °FClear.6 mph61%30.04 "Hg10 mi
2:52 AM48 °FClear.9 mph66%30.06 "Hg10 mi
1:52 AM49 °FClear.6 mph64%30.06 "Hg10 mi
12:52 AM51 °FClear.8 mph59%30.08 "Hg10 mi
11:52 PM
Jan 27
52 °FClear.7 mph59%30.10 "Hg10 mi
10:52 PM53 °FClear.9 mph59%30.10 "Hg10 mi
9:52 PM54 °FClear.9 mph55%30.10 "Hg10 mi
8:52 PM57 °FClear.8 mph49%30.11 "Hg10 mi
7:52 PM58 °FClear.8 mph50%30.12 "Hg10 mi
6:52 PM66 °FClear.7 mph37%30.10 "Hg10 mi
5:52 PM71 °FSunny.7 mph31%30.09 "Hg10 mi
4:52 PM76 °FSunny.9 mph24%30.07 "Hg10 mi
3:52 PM78 °FSunny.6 mph22%30.09 "Hg10 mi
2:52 PM77 °FSunny.5 mph24%30.11 "Hg10 mi
1:52 PM76 °FSunny.3 mph23%30.13 "Hg10 mi
12:52 PM73 °FSunny.No wind26%30.15 "Hg10 mi
11:52 AM70 °FSunny.No wind31%30.18 "Hg10 mi
10:52 AM64 °FSunny.3 mph37%30.20 "Hg10 mi
9:52 AM57 °FSunny.5 mph46%30.21 "Hg10 mi
8:52 AM47 °FSunny.No wind66%30.20 "Hg10 mi
7:52 AM40 °FSunny.5 mph77%30.20 "Hg10 mi
6:52 AM42 °FClear.No wind68%30.16 "Hg10 mi
Weather by CustomWeather, © 2014

See weather overviewHow to use our weather pages